Tracking 33181 objects as of 19-Feb-2026
HD Live streaming from Space Station
objects crossing your sky now

CZ-6A DEB

Track CZ-6A DEB now!
10-day predictions


NORAD ID: 54564
Int'l Code: 2022-151LQ
Perigee: 741.0 km
Apogee: 781.6 km
Inclination: 98.7 °
Period: 99.9 minutes
Semi major axis: 7132 km
RCS: Unknown
Launch date: November 11, 2022
Source: People's Republic of China (PRC)
Launch site: Taiyaun Space Center, China (TSC)

Note: This is SATELLITE DEBRIS
Your satellite tracking list
Your tracking list is empty




NASA's NSSDC Master Catalog

Two Line Element Set (TLE):
1 54564U 22151LQ  26049.59042828  .00005805  00000-0  17991-2 0  9991
2 54564  98.7481  85.9775 0028420 280.7988  79.0001 14.41313935170461
Source of the keplerian elements: AFSPC